Weather WX

World > North America > United States > Mississippi

Macon, Mississippi Regional Weather

Lat: 33.11N, Lon: 88.56W
Wx Zone: MSZ039
Feedback

Macon, MS Regional Weather

Expires:201906250200;;028562
ASUS44 KJAN 250110
RWRMS 

MISSISSIPPI HOURLY WEATHER ROUNDUP
NATIONAL WEATHER SERVICE JACKSON MS
800 PM CDT MON JUN 24 2019

NOTE: "FAIR: INDICATES FEW OR NO CLOUDS BELOW 12,000 FEET WITH NO
SIGNIFICANT WEATHER AND/OR OBSTRUCTIONS TO VISIBILITY.


MSZ003>006-009-014>017-022>024-029>033-037>039-250200-
NORTHEAST MISSISSIPPI
  
CITY           SKY/WX    TMP DP  RH WIND       PRES   REMARKS
ABERDEEN       FAIR      81  81 100 SW5       29.94R HX  91           
COLUMBUS AFB   FAIR      81  65  58 W8        29.92R                  
GOLDN TRIANGLE FAIR      81  66  60 W7        29.94R                  
STARKVILLE     FAIR      77  64  65 CALM      29.95R                  
TUPELO         FAIR      79  68  69 SW3       29.92R                  
$$


SKY/WX - Weather  TMP - Temperature  DP - Dew Point  RH - Relative Humidity
WIND - Wind Direction/Speed PRES - Barometric Pressure VSB - Visibility
WCI - Wind Chill Index E13G22 Wind - East Wind 13 mph/Gusts of 22 mph